This demonstration page uses our WeatherBlox Daily Observations layout. Learn more.

Left ArrowRight Arrow

44.8408, -93.29828

Hourly Observations for November 30, 2022

Temp ( °F °C ) Dew Point ( °F °C ) Humidity (%) Winds ( mph kmh ) Pressure ( in mb ) Visibility ( mi km ) Precip ( " mm )
12:53 am 00:53 Cloudy 22 -5.6 14 -10 71 71 W 15 24 29.80 1009 10 16 0.00 0.00
1:10 am 01:10 Cloudy with Light Snow 22 -5.6 15 -9.4 74 74 WNW 17 28 29.84 1010 9 14 0.01 0.13
1:53 am 01:53 Cloudy with Light Snow 22 -5.6 15 -9.4 74 74 WNW 16 26 29.82 1010 9 14 0.10 2.54
2:53 am 02:53 Cloudy with Light Snow 22 -5.6 14 -10 71 71 W 17 28 29.84 1011 9 14 0.02 0.51
3:08 am 03:08 Cloudy 22 -5.6 14 -10 71 71 W 13 20 29.88 1012 9 14 0.03 0.76
3:53 am 03:53 Cloudy 22 -5.6 14 -10 71 71 W 20 31 29.85 1011 9 14 0.03 0.76
4:22 am 04:22 Windy with Snow Likely 22 -5.6 14 -10 71 71 WNW 21 33 29.89 1012 9 14 0.01 0.13
4:37 am 04:37 Cloudy 21 -6.1 12 -11.1 68 68 WNW 24 39 29.91 1013 9 14 0.01 0.13
4:53 am 04:53 Cloudy 21 -6.1 12 -11.1 68 68 NW 21 33 29.89 1012 9 14 0.02 0.51
5:00 am 05:00 Windy with Snow Likely 21 -6.1 12 -11.1 68 68 WNW 21 33 29.92 1013 9 14 0.03 0.76
5:06 am 05:06 Cloudy 20 -6.7 12 -11.1 71 71 WNW 20 31 29.92 1013 9 14 0.00 0.00
5:20 am 05:20 Cloudy 20 -6.7 11 -11.7 67 67 WNW 22 35 29.93 1014 10 16 0.00 0.00
5:53 am 05:53 Cloudy 19 -7.2 10 -12.2 67 67 W 25 41 29.92 1013 10 16 0.00 0.00
6:13 am 06:13 Windy with Snow Likely 18 -7.8 9 -12.8 67 67 WNW 24 39 29.97 1015 10 16 0.00 0.00
6:34 am 06:34 Cloudy with Light Snow 18 -7.8 10 -12.2 71 71 WNW 18 30 29.99 1015 6 10 0.00 0.00
6:53 am 06:53 Windy with Snow Likely 18 -7.8 10 -12.2 71 71 W 21 33 29.96 1015 9 14 0.00 0.00
7:10 am 07:10 Cloudy 18 -7.8 10 -12.2 71 71 W 21 33 30.00 1016 9 14 0.00 0.00
7:53 am 07:53 Partly Cloudy 17 -8.3 7 -13.9 64 64 W 20 31 29.99 1016 10 16 0.00 0.00
8:19 am 08:19 Mostly Cloudy 17 -8.3 8 -13.3 67 67 WNW 20 31 30.04 1017 10 16 0.00 0.00
8:34 am 08:34 Cloudy with Light Snow 17 -8.3 8 -13.3 67 67 WNW 18 30 30.05 1018 10 16 0.00 0.00
8:53 am 08:53 Mostly Cloudy with Light Snow 16 -8.9 8 -13.3 70 70 W 18 30 30.03 1017 9 14 0.00 0.00
9:12 am 09:12 Mostly Cloudy 16 -8.9 7 -13.9 67 67 WNW 20 31 30.07 1018 9 14 0.00 0.00
9:44 am 09:44 Mostly Cloudy with Light Snow 17 -8.3 7 -13.9 64 64 WNW 21 33 30.09 1019 9 14 0.00 0.00
9:53 am 09:53 Partly Cloudy 16 -8.9 6 -14.4 64 64 W 20 31 30.06 1018 9 14 0.00 0.00
10:26 am 10:26 Partly Cloudy with Scattered Snow Showers 17 -8.3 7 -13.9 64 64 W 21 33 30.12 1020 10 16 0.00 0.00
10:32 am 10:32 Mostly Cloudy 18 -7.8 8 -13.3 65 65 WNW 16 26 30.12 1020 9 14 0.00 0.00
10:53 am 10:53 Mostly Cloudy 17 -8.3 7 -13.9 64 64 WNW 17 28 30.09 1019 10 16 0.00 0.00
11:40 am 11:40 Mostly Cloudy with Light Snow 18 -7.8 8 -13.3 65 65 W 22 35 30.13 1020 10 16 0.01 0.13
11:53 am 11:53 Mostly Cloudy 18 -7.8 8 -13.3 65 65 W 23 37 30.10 1019 9 14 0.01 0.13
12:01 pm 12:01 Mostly Cloudy with Light Snow 18 -7.8 8 -13.3 65 65 W 21 33 30.13 1020 8 13 0.01 0.13
12:12 pm 12:12 Partly Cloudy 18 -7.8 7 -13.9 61 61 W 22 35 30.15 1021 10 16 0.01 0.13
12:53 pm 12:53 Partly Cloudy 18 -7.8 7 -13.9 61 61 WNW 22 35 30.13 1020 10 16 0.01 0.13
1:53 pm 13:53 Partly Cloudy 19 -7.2 7 -13.9 59 59 WNW 21 33 30.15 1021 10 16 0.00 0.00
2:53 pm 14:53 Mostly Sunny 19 -7.2 7 -13.9 59 59 W 17 28 30.18 1022 10 16 0.00 0.00
3:53 pm 15:53 Partly Cloudy 18 -7.8 7 -13.9 61 61 W 20 31 30.22 1024 10 16 0.00 0.00
4:53 pm 16:53 Clear 17 -8.3 6 -14.4 61 61 W 14 22 30.25 1024 10 16 0.00 0.00
5:53 pm 17:53 Clear 16 -8.9 6 -14.4 64 64 WNW 14 22 30.28 1025 10 16 0.00 0.00
6:53 pm 18:53 Clear 16 -8.9 6 -14.4 64 64 W 10 17 30.30 1026 10 16 0.00 0.00
7:53 pm 19:53 Clear 15 -9.4 6 -14.4 67 67 W 9 15 30.31 1027 10 16 0.00 0.00
8:53 pm 20:53 Clear 14 -10 5 -15 67 67 WSW 7 11 30.35 1028 10 16 0.00 0.00
9:53 pm 21:53 Clear 13 -10.6 5 -15 70 70 VRB 6 9 30.36 1028 10 16 0.00 0.00
10:53 pm 22:53 Clear 12 -11.1 5 -15 73 73 W 5 7 30.37 1028 10 16 0.00 0.00
11:53 pm 23:53 Clear 11 -11.7 5 -15 76 76 SSW 5 7 30.38 1029 10 16 0.00 0.00

Powered by AerisWeather